GLO1977 SBPS-SBCF

Flight info

Callsign GLO1977
Flight time N/A
Altitude 36000
Route EDRAG DCT DORDU DCT OPTEB
Aircraft B38M/M-SDFGHIJ4J5KLORWXY/LB1

Departure

Time 2026-04-28 07:28
Airport Porto Seguro International Airport (SBPS)

Arrival

Time N/A
Airport Tancredo Neves International Airport (SBCF)
Time Latitude Longitude Altitude Speed Heading
2026-04-28 07:14 -16.44072 -39.08129 162 ft 0 kts 165°
2026-04-28 07:20 -16.44053 -39.08132 162 ft 4 kts 180°
2026-04-28 07:20 -16.44029 -39.08126 162 ft 4 kts 218°
2026-04-28 07:20 -16.44016 -39.08108 162 ft 1 kts 254°
2026-04-28 07:21 -16.44015 -39.08104 162 ft 0 kts 254°
2026-04-28 07:23 -16.44018 -39.08115 162 ft 4 kts 254°
2026-04-28 07:23 -16.44027 -39.08145 162 ft 4 kts 254°
2026-04-28 07:23 -16.44035 -39.08175 162 ft 4 kts 253°
2026-04-28 07:24 -16.44043 -39.08204 162 ft 4 kts 255°
2026-04-28 07:24 -16.44050 -39.08231 162 ft 4 kts 255°
2026-04-28 07:24 -16.44057 -39.08257 162 ft 3 kts 257°
2026-04-28 07:24 -16.44053 -39.08277 162 ft 2 kts 300°
2026-04-28 07:25 -16.44035 -39.08291 162 ft 4 kts 335°
2026-04-28 07:25 -16.43998 -39.08302 162 ft 7 kts 345°
2026-04-28 07:25 -16.43942 -39.08319 161 ft 10 kts 334°
2026-04-28 07:25 -16.43932 -39.08390 160 ft 12 kts 255°
2026-04-28 07:26 -16.43956 -39.08477 161 ft 13 kts 254°
2026-04-28 07:26 -16.43982 -39.08574 161 ft 15 kts 254°
2026-04-28 07:26 -16.44011 -39.08682 161 ft 16 kts 254°
2026-04-28 07:26 -16.44043 -39.08803 162 ft 18 kts 254°
2026-04-28 07:27 -16.44073 -39.08930 163 ft 16 kts 278°
2026-04-28 07:27 -16.44068 -39.08985 162 ft 5 kts 219°
2026-04-28 07:27 -16.44086 -39.08970 162 ft 4 kts 94°
2026-04-28 07:27 -16.44061 -39.08868 163 ft 41 kts 74°
2026-04-28 07:28 -16.43909 -39.08304 161 ft 117 kts 74°
2026-04-28 07:28 -16.43638 -39.07293 238 ft 163 kts 75°
2026-04-28 07:28 -16.43353 -39.06208 969 ft 151 kts 76°
2026-04-28 07:28 -16.43115 -39.05179 1725 ft 142 kts 74°
2026-04-28 07:29 -16.42825 -39.04131 2142 ft 160 kts 73°
2026-04-28 07:29 -16.42668 -39.02884 2434 ft 193 kts 97°
2026-04-28 07:29 -16.43382 -39.01563 2713 ft 235 kts 140°
2026-04-28 07:29 -16.44992 -39.00931 3262 ft 266 kts 177°
2026-04-28 07:30 -16.46783 -39.01455 4202 ft 271 kts 214°
2026-04-28 07:30 -16.48042 -39.02927 5239 ft 278 kts 242°
2026-04-28 07:30 -16.48940 -39.04738 6220 ft 284 kts 238°
2026-04-28 07:30 -16.49972 -39.06504 7155 ft 288 kts 240°
2026-04-28 07:31 -16.50744 -39.08424 8062 ft 294 kts 250°
2026-04-28 07:31 -16.51425 -39.10450 8958 ft 299 kts 250°
2026-04-28 07:31 -16.52120 -39.12507 9920 ft 302 kts 250°
2026-04-28 07:31 -16.52828 -39.14609 10573 ft 315 kts 250°
2026-04-28 07:32 -16.53578 -39.16834 10977 ft 335 kts 250°
2026-04-28 07:32 -16.54370 -39.19188 11470 ft 350 kts 251°
2026-04-28 07:32 -16.55184 -39.21607 12124 ft 356 kts 251°
2026-04-28 07:32 -16.56008 -39.24058 12899 ft 360 kts 251°
2026-04-28 07:33 -16.56840 -39.26532 13592 ft 364 kts 251°
2026-04-28 07:33 -16.57682 -39.29036 14243 ft 368 kts 251°
2026-04-28 07:33 -16.58533 -39.31569 14868 ft 371 kts 251°
2026-04-28 07:33 -16.59388 -39.34116 15484 ft 374 kts 251°
2026-04-28 07:34 -16.60250 -39.36684 16079 ft 377 kts 251°
2026-04-28 07:34 -16.61108 -39.39240 16653 ft 380 kts 251°
2026-04-28 07:34 -16.61983 -39.41851 17235 ft 383 kts 250°
2026-04-28 07:34 -16.62866 -39.44487 17803 ft 386 kts 250°
2026-04-28 07:35 -16.63749 -39.47124 18378 ft 388 kts 250°
2026-04-28 07:35 -16.64640 -39.49787 18855 ft 391 kts 250°
2026-04-28 07:35 -16.65539 -39.52475 19313 ft 393 kts 251°
2026-04-28 07:35 -16.66443 -39.55177 19779 ft 396 kts 251°
2026-04-28 07:36 -16.67355 -39.57906 20218 ft 399 kts 251°
2026-04-28 07:36 -16.68271 -39.60647 20674 ft 401 kts 251°
2026-04-28 07:36 -16.69191 -39.63402 21120 ft 404 kts 251°
2026-04-28 07:36 -16.70118 -39.66179 21566 ft 407 kts 251°
2026-04-28 07:37 -16.71041 -39.68944 22020 ft 410 kts 251°
2026-04-28 07:37 -16.71989 -39.71788 22458 ft 413 kts 252°
2026-04-28 07:37 -16.72935 -39.74626 22914 ft 415 kts 252°
2026-04-28 07:37 -16.73877 -39.77453 23347 ft 418 kts 252°
2026-04-28 07:38 -16.74835 -39.80329 23756 ft 421 kts 252°
2026-04-28 07:38 -16.75798 -39.83222 24125 ft 423 kts 252°
2026-04-28 07:38 -16.76765 -39.86129 24538 ft 425 kts 252°
2026-04-28 07:38 -16.77734 -39.89043 24909 ft 427 kts 252°
2026-04-28 07:39 -16.78711 -39.91982 25300 ft 429 kts 252°
2026-04-28 07:39 -16.79690 -39.94930 25704 ft 430 kts 252°
2026-04-28 07:39 -16.80665 -39.97868 26095 ft 432 kts 252°
2026-04-28 07:39 -16.81650 -40.00836 26480 ft 434 kts 251°
2026-04-28 07:40 -16.82639 -40.03821 26850 ft 436 kts 251°
2026-04-28 07:40 -16.83634 -40.06823 27225 ft 438 kts 251°
2026-04-28 07:40 -16.84631 -40.09833 27587 ft 440 kts 251°
2026-04-28 07:40 -16.85632 -40.12859 27950 ft 442 kts 251°
2026-04-28 07:41 -16.86638 -40.15897 28302 ft 444 kts 251°
2026-04-28 07:41 -16.87634 -40.18909 28644 ft 446 kts 251°
2026-04-28 07:41 -16.88647 -40.21972 29001 ft 448 kts 251°
2026-04-28 07:41 -16.89661 -40.25044 29351 ft 449 kts 251°
2026-04-28 07:42 -16.90682 -40.28138 29680 ft 451 kts 251°
2026-04-28 07:42 -16.91708 -40.31248 30018 ft 453 kts 251°
2026-04-28 07:42 -16.92736 -40.34367 30307 ft 455 kts 251°
2026-04-28 07:42 -16.93767 -40.37496 30604 ft 456 kts 251°
2026-04-28 07:43 -16.94801 -40.40634 30896 ft 457 kts 251°
2026-04-28 07:43 -16.95840 -40.43791 31148 ft 459 kts 251°
2026-04-28 07:43 -16.96874 -40.46934 31429 ft 460 kts 251°
2026-04-28 07:43 -16.97916 -40.50105 31713 ft 462 kts 251°
2026-04-28 07:44 -16.98610 -40.52215 31883 ft 463 kts 251°
2026-04-28 07:44 -17.00001 -40.56451 32238 ft 465 kts 251°
2026-04-28 07:44 -17.00712 -40.58616 32417 ft 466 kts 252°
2026-04-28 07:44 -17.01755 -40.61794 32694 ft 467 kts 252°
2026-04-28 07:45 -17.02809 -40.65010 33070 ft 466 kts 252°
2026-04-28 07:45 -17.03855 -40.68201 33465 ft 464 kts 252°
2026-04-28 07:45 -17.04896 -40.71379 33870 ft 463 kts 252°
2026-04-28 07:45 -17.05935 -40.74554 34244 ft 461 kts 252°
2026-04-28 07:46 -17.06969 -40.77717 34572 ft 459 kts 252°
2026-04-28 07:46 -17.08003 -40.80878 34906 ft 458 kts 252°
2026-04-28 07:46 -17.09021 -40.83992 35231 ft 457 kts 252°
2026-04-28 07:46 -17.10047 -40.87134 35553 ft 455 kts 252°
2026-04-28 07:47 -17.11071 -40.90272 35873 ft 454 kts 252°
2026-04-28 07:47 -17.12092 -40.93404 36077 ft 454 kts 253°
2026-04-28 07:47 -17.14102 -40.99570 36069 ft 449 kts 253°
2026-04-28 07:48 -17.16120 -41.05768 36070 ft 449 kts 253°
2026-04-28 07:48 -17.18124 -41.11933 36072 ft 449 kts 253°
2026-04-28 07:49 -17.20141 -41.18143 36068 ft 449 kts 253°
2026-04-28 07:49 -17.22135 -41.24289 36070 ft 449 kts 253°
2026-04-28 07:50 -17.24149 -41.30504 36071 ft 449 kts 253°
2026-04-28 07:50 -17.26155 -41.36703 36069 ft 448 kts 253°
2026-04-28 07:51 -17.28141 -41.42846 36071 ft 448 kts 253°
2026-04-28 07:51 -17.30135 -41.49023 36072 ft 448 kts 253°
2026-04-28 07:52 -17.32129 -41.55206 36072 ft 448 kts 253°
2026-04-28 07:52 -17.34124 -41.61399 36078 ft 449 kts 253°
2026-04-28 07:53 -17.36106 -41.67558 36080 ft 449 kts 253°
2026-04-28 07:53 -17.38094 -41.73742 36078 ft 448 kts 253°
2026-04-28 07:54 -17.40084 -41.79941 36086 ft 449 kts 253°
2026-04-28 07:54 -17.42059 -41.86100 36075 ft 448 kts 253°
2026-04-28 07:55 -17.44044 -41.92301 36079 ft 448 kts 253°
2026-04-28 07:55 -17.46100 -41.98471 36072 ft 449 kts 245°
2026-04-28 07:56 -17.47762 -42.01191 36076 ft 451 kts 232°
2026-04-28 07:56 -17.49778 -42.03729 36072 ft 454 kts 232°
2026-04-28 07:56 -17.53845 -42.08793 36081 ft 455 kts 232°
2026-04-28 07:57 -17.57968 -42.13834 36090 ft 454 kts 231°
2026-04-28 07:57 -17.62062 -42.18828 36080 ft 454 kts 231°
2026-04-28 07:58 -17.66190 -42.23864 36084 ft 454 kts 231°
2026-04-28 07:58 -17.70316 -42.28903 36086 ft 454 kts 231°
2026-04-28 07:59 -17.74430 -42.33930 36079 ft 454 kts 231°
2026-04-28 07:59 -17.78517 -42.38929 36081 ft 454 kts 231°
2026-04-28 08:00 -17.82632 -42.43967 36079 ft 454 kts 231°
2026-04-28 08:00 -17.86753 -42.49014 36081 ft 454 kts 231°
2026-04-28 08:01 -17.90840 -42.54024 36081 ft 454 kts 231°
2026-04-28 08:01 -17.94938 -42.59052 36074 ft 454 kts 231°
2026-04-28 08:02 -17.99046 -42.64096 36075 ft 454 kts 232°
2026-04-28 08:02 -18.03152 -42.69141 36067 ft 454 kts 232°
2026-04-28 08:03 -18.07261 -42.74194 36075 ft 454 kts 232°
2026-04-28 08:03 -18.11333 -42.79206 36075 ft 454 kts 232°
2026-04-28 08:04 -18.15438 -42.84263 36071 ft 454 kts 232°
2026-04-28 08:04 -18.19522 -42.89295 36075 ft 454 kts 232°
2026-04-28 08:05 -18.23621 -42.94352 36083 ft 454 kts 232°
2026-04-28 08:05 -18.27710 -42.99400 36074 ft 454 kts 232°
2026-04-28 08:06 -18.31788 -43.04438 36084 ft 455 kts 232°
2026-04-28 08:06 -18.35910 -43.09534 36077 ft 456 kts 232°
2026-04-28 08:07 -18.40362 -43.14270 36083 ft 458 kts 218°
2026-04-28 08:07 -18.45448 -43.18339 36063 ft 460 kts 220°
2026-04-28 08:08 -18.50559 -43.22405 36083 ft 461 kts 219°
2026-04-28 08:08 -18.55649 -43.26443 36085 ft 460 kts 220°
2026-04-28 08:09 -18.60765 -43.30503 36089 ft 460 kts 220°
2026-04-28 08:09 -18.65863 -43.34551 36085 ft 460 kts 220°
2026-04-28 08:10 -18.70977 -43.38615 36091 ft 460 kts 220°
2026-04-28 08:10 -18.75973 -43.42590 36091 ft 460 kts 220°
2026-04-28 08:11 -18.79304 -43.45241 36089 ft 460 kts 220°
2026-04-28 08:11 -18.80612 -43.46282 36080 ft 460 kts 220°
2026-04-28 08:12 -18.84988 -43.49768 36080 ft 460 kts 220°
2026-04-28 08:12 -18.90103 -43.53845 36079 ft 460 kts 220°
2026-04-28 08:13 -18.95187 -43.57901 36093 ft 460 kts 220°
2026-04-28 08:13 -19.00287 -43.61970 36090 ft 460 kts 220°
2026-04-28 08:14 -19.05408 -43.66002 36092 ft 460 kts 219°
2026-04-28 08:14 -19.10548 -43.70052 36073 ft 460 kts 219°
2026-04-28 08:15 -19.15639 -43.74068 36074 ft 460 kts 219°
2026-04-28 08:15 -19.20757 -43.78107 36088 ft 460 kts 219°
2026-04-28 08:16 -19.25782 -43.82129 36070 ft 436 kts 225°
2026-04-28 08:16 -19.27767 -43.84390 36114 ft 415 kts 231°
2026-04-28 08:16 -19.29715 -43.86599 36066 ft 406 kts 229°
2026-04-28 08:17 -19.33614 -43.90920 36099 ft 404 kts 229°
2026-04-28 08:17 -19.37488 -43.95207 36090 ft 402 kts 229°
2026-04-28 08:18 -19.41333 -43.99461 36098 ft 403 kts 229°
2026-04-28 08:18 -19.45142 -44.03801 36095 ft 404 kts 224°
2026-04-28 08:19 -19.47496 -44.05441 36063 ft 407 kts 205°
2026-04-28 08:19 -19.50244 -44.06177 36093 ft 413 kts 185°
2026-04-28 08:19 -19.53109 -44.05798 36096 ft 420 kts 161°
2026-04-28 08:19 -19.55691 -44.04329 36126 ft 426 kts 142°
2026-04-28 08:20 -19.60052 -43.99986 36134 ft 433 kts 140°
2026-04-28 08:20 -19.64654 -43.95843 36107 ft 434 kts 150°
2026-04-28 08:21 -19.67357 -43.94534 36045 ft 423 kts 169°
2026-04-28 08:21 -19.70237 -43.94156 36084 ft 416 kts 184°
2026-04-28 08:21 -19.76035 -43.94347 36076 ft 421 kts 185°
2026-04-28 08:22 -19.81901 -43.94474 36085 ft 421 kts 184°
2026-04-28 08:22 -19.87779 -43.94482 36088 ft 422 kts 182°
2026-04-28 08:23 -19.93645 -43.94369 36084 ft 422 kts 181°
2026-04-28 08:23 -19.99489 -43.94138 36090 ft 423 kts 180°
2026-04-28 08:24 -20.00896 -43.94064 36089 ft 423 kts 180°
2026-04-28 08:24 -20.04913 -43.93816 36098 ft 423 kts 179°
2026-04-28 08:25 -20.10790 -43.93336 36098 ft 424 kts 178°
2026-04-28 08:26 -20.19596 -43.92372 36097 ft 425 kts 176°
2026-04-28 08:26 -20.25432 -43.91570 36104 ft 425 kts 175°
2026-04-28 08:27 -20.31291 -43.90625 36110 ft 426 kts 173°
2026-04-28 08:27 -20.37132 -43.89533 36104 ft 427 kts 172°
2026-04-28 08:28 -20.42953 -43.88299 36103 ft 427 kts 171°
2026-04-28 08:28 -20.48738 -43.86926 36103 ft 428 kts 169°
2026-04-28 08:29 -20.54521 -43.85398 36097 ft 428 kts 168°